Погода в Барашково

Россия / Курганская область     55°29′41″N   65°46′25″E
темп.,
°C
ветер,
м/с
пор.,
м/с
влажн.,
%
обл.,
%
осадки,
мм/ч
давл.,
гПа
погр.,
м
23 апреля, пт
пт2323:00+8ююв71557100 0.0 1036431
02:00+7ююв61361100 0.0 1035309
05:00+6ю5136896 0.0 1035309
08:00+8ю61258100 0.0 1036417
11:00+10ю6945100 0.0 1036752
14:00+13ю793897 0.0 10351262
17:00+13ю7838100 0.0 10341489
20:00+9ююв51043100 0.0 1033337
24 апреля, сб
сб2423:00+7ююв51146100 0.0 1032273
02:00+6ююв51051100 0.0 1031267
05:00+5ююв4955100 0.0 1030231
08:00+5юв4658100 0.0 1029232
11:00+7юв5658100 0.0 1027486
14:00+10юв7840100 0.0 10251100
17:00+11ююв6938100 0.0 10231686
20:00+9юв61136100 0.0 1022561
25 апреля, вс
вс2523:00+6юв41158100 0.0 1021560
02:00+6вюв61252100 0.0 1019472
05:00+5вюв51160100 0.0 1018392
08:00+7вюв51159100 0.0 1017495
11:00+11юв674195 0.0 10151019
14:00+14юв563367 0.0 10141629
17:00+14ю544064 0.0 10141801
20:00+10ююз366724 0.0 1015110
26 апреля, пн
пн2623:00+8ююз51270100 0.0 1014409
02:00+7зюз37885 0.1 1015170
05:00+5юз410930 0.1 1016250
08:00+8зюз686342 0.0 1017735
11:00+11зюз912375 0.0 10172163
14:00+12з10133553 0.0 10182621
17:00+13зсз61031100 0.0 10182581
20:00+10зюз3341100 0.0 101944
27 апреля, вт
вт2723:00+8юз3449100 0.0 101962
02:00+7юз2251100 0.0 101829
05:00+6ююз5777100 0.2 1017305
08:00+5юв4788100 2.3 1016587
11:00+4в61091100 4.8 1013678
14:00+5всв5789100 0.3 1012582
17:00+5всв4587100 0.3 1010529
20:00+5св2590100 0.0 1010318